Regional Weather Roundup
Issued by NWS

Home | Current Version | Previous Version | Text Only | Print | Product List | Glossary On
Versions: 1 2 3 4 5 6 7 8 9 10 11 12 13 14 15 16 17 18 19 20 21 22 23 24 25 26 27 28 29 30 31 32 33 34 35 36 37 38
000
ASUS46 KSEW 220510
RWRWA

WASHINGTON REGIONAL WEATHER ROUNDUP
NATIONAL WEATHER SERVICE SEATTLE WA
1000 PM PDT TUE OCT 21 2014

NOTE:"FAIR" INDICATES FEW OR NO CLOUDS BELOW 12,000 FEET WITH NO
SIGNIFICANT WEATHER AND/OR OBSTRUCTIONS TO VISIBILITY.

WAZ505-507>509-220600-
SEATTLE, TACOMA, EVERETT, AND VICINITY

CITY           SKY/WX    TMP DP  RH WIND       PRES   REMARKS
EVERETT        LGT RAIN  57  46  66 S14G31    29.79S
BOEING FIELD   LGT RAIN  60  48  64 SE10      29.78F
RENTON         CLOUDY    57  50  77 SE3       29.78F
SEATAC AIRPORT CLOUDY    59  45  59 S13G22    29.80F
JBLM-MCCHORD   MOCLDY    59  48  66 S14       29.79F
PUYALLUP       NOT AVBL
JBLM-FT LEWIS  DRIZZLE   59  47  64 SE17      29.78F
TACOMA NARROWS CLOUDY    59  46  62 S14G28    29.79F
$$

WAZ001-503-506-510-514-515-220600-
NORTH INTERIOR

CITY           SKY/WX    TMP DP  RH WIND       PRES   REMARKS
BELLINGHAM     CLOUDY    62  45  53 SE22G41   29.68F
FRIDAY HARBOR  CLOUDY    57  48  72 SE26G40   29.65F
EASTSOUND      CLOUDY    59  48  67 S14G28    29.63F
PORT ANGELES   LGT RAIN  54  52  93 CALM      29.61F
NAS WHIDBEY    CLOUDY    62  47  57 SE28G39   29.72F
BURLINGTON     CLEAR    N/A N/A N/A SE14G25   29.74F
$$

WAZ020-022-039-040-504-511-512-220600-
SOUTHWEST INTERIOR

CITY           SKY/WX    TMP DP  RH WIND       PRES   REMARKS
SHELTON        CLOUDY    58  48  69 S14G23    29.75F
OLYMPIA        CLOUDY    58  48  69 S15       29.78F
CHEHALIS       LGT RAIN  57  52  82 S8        29.79F
KELSO          CLOUDY    57  46  67 S9        29.85F
VANCOUVER      CLOUDY    58  50  75 SE13      29.86F
SCAPPOOSE, OR  CLOUDY    57  51  80 SW3       29.85F
PORTLAND, OR   CLOUDY    57  51  80 E13       29.87F
$$

WAZ021-516-517-220600-
WASHINGTON COAST

CITY           SKY/WX    TMP DP  RH WIND       PRES   REMARKS
FORKS          LGT RAIN  55  54  96 S16G41    29.59F FOG
HOQUIAM        LGT RAIN  56  54  93 E17       29.72F
ASTORIA, OR    LGT RAIN  57  51  80 S9G20     29.75F
$$

WAZ019-023-024-040-518-519-220600-
CASCADE MOUNTAINS AND COLUMBIA GORGE

CITY           SKY/WX    TMP DP  RH WIND       PRES   REMARKS
STAMPEDE PASS  NOT AVBL
TROUTDALE, OR  LGT RAIN  56  50  80 SE5       29.87F
THE DALLES, OR CLOUDY    51  46  83 CALM      29.92F
$$

WAZ026-027-041>044-520-521-220600-
EAST SLOPES

CITY           SKY/WX    TMP DP  RH WIND       PRES   REMARKS
OMAK           PTCLDY    52  40  63 S7        29.88S
WENATCHEE      CLEAR     50  41  71 NE5       29.89S
ELLENSBURG     PTCLDY    47  40  76 NE7       29.90F
YAKIMA         PTCLDY    50  41  71 CALM      29.92S
$$

WAZ028-034-035-220600-
COLUMBIA BASIN

CITY           SKY/WX    TMP DP  RH WIND       PRES   REMARKS
EPHRATA        CLEAR     46  42  86 SE3       29.90S
MOSES LAKE     CLEAR     48  42  80 SE6       29.92F
PASCO          CLEAR     50  46  86 CALM      29.95S
HERMISTON, OR  CLEAR     47  40  76 S7        29.94F
$$

WAZ036>038-220600-
NORTHEAST WASHINGTON

CITY           SKY/WX    TMP DP  RH WIND       PRES   REMARKS
SPOKANE GEIGER CLEAR     47  41  80 SE7       29.97S
SPOKANE FELTS  CLEAR     48  41  76 NE3       29.98S
FAIRCHILD AFB  CLEAR     44  40  86 S6        29.96F
COEURDALENE,ID MOCLDY    48  41  76 S8        29.98R
DEER PARK      CLEAR     38  36  92 E3        29.97S
$$

WAZ029>033-220600-
SOUTHEAST WASHINGTON

CITY           SKY/WX    TMP DP  RH WIND       PRES   REMARKS
PULLMAN        CLEAR     42  34  73 E3        30.01F
LEWISTON, ID   CLEAR     48  40  73 SE6       29.99F
WALLA WALLA    CLEAR     52  41  66 E8        29.95F
PENDLETON, OR  CLEAR     48  39  71 SE7       29.95F
$$



USA.gov is the U.S. government's official web portal to all federal, state and local government web resources and services.